This is the latest recevied weather packets stored in our database for station/object KA2FNK. If no packets are shown the sender has not sent any weather packets the latest 10 day(s).
| Time | Temp. | Humidity | Pressure | Rain* | Wind** | Luminosity | Snow |
|---|---|---|---|---|---|---|---|
| 1777935939 | 26.67° C | 39% | 1001.2 hPa | 0 mm | - | - | - |
| 1777935638 | 26.67° C | 40% | 1001.2 hPa | 0 mm | - | - | - |
| 1777935338 | 26.67° C | 39% | 1001.2 hPa | 0 mm | - | - | - |
| 1777935037 | 26.67° C | 39% | 1001.2 hPa | 0 mm | - | - | - |
| 1777934735 | 26.67° C | 40% | 1001 hPa | 0 mm | - | - | - |
| 1777934434 | 26.67° C | 40% | 1001.2 hPa | 0 mm | - | - | - |
| 1777934133 | 26.67° C | 40% | 1001.2 hPa | 0 mm | - | - | - |
| 1777933832 | 26.67° C | 42% | 1001.2 hPa | 0 mm | - | - | - |
| 1777933532 | 26.11° C | 42% | 1001.2 hPa | 0 mm | - | - | - |
| 1777933231 | 26.11° C | 43% | 1001.3 hPa | 0 mm | - | - | - |
| 1777932929 | 26.11° C | 42% | 1001.4 hPa | 0 mm | - | - | - |
| 1777932628 | 26.11° C | 42% | 1001.3 hPa | 0 mm | - | - | - |
| 1777932328 | 26.11° C | 41% | 1001.3 hPa | 0 mm | - | - | - |
| 1777932026 | 26.11° C | 44% | 1001.4 hPa | 0 mm | - | - | - |
| 1777931725 | 26.11° C | 43% | 1001.4 hPa | 0 mm | - | - | - |
| 1777931424 | 26.11° C | 42% | 1001.5 hPa | 0 mm | - | - | - |
| 1777931123 | 26.11° C | 42% | 1001.5 hPa | 0 mm | - | - | - |
| 1777930822 | 26.67° C | 42% | 1001.5 hPa | 0 mm | - | - | - |
| 1777930521 | 26.67° C | 41% | 1001.5 hPa | 0 mm | - | - | - |
| 1777930220 | 26.67° C | 43% | 1001.5 hPa | 0 mm | - | - | - |
| 1777929919 | 26.67° C | 42% | 1001.5 hPa | 0 mm | - | - | - |
| 1777929618 | 26.67° C | 41% | 1001.5 hPa | 0 mm | - | - | - |
| 1777929317 | 26.67° C | 39% | 1001.5 hPa | 0 mm | - | - | - |
| 1777929016 | 27.22° C | 41% | 1001.4 hPa | 0 mm | - | - | - |
| 1777928715 | 27.22° C | 39% | 1001.4 hPa | 0 mm | - | - | - |
* Rain latest hour (hover to see other rain measurements)
** Current wind speed in m/s (hover to see current wind gust speed)